• In Portugal
  • List of Countries
  • For 7 days
  • Water Temperature
  • Satellite Maps
  • Weather Map
  • Weather Widgets
  • user-avatar
    Login

    Hourly Weather Malatya

    Today, 20 February, Tuesday

    Time Temperature Precipitation Wind Pressure Humidity
    00:00 +6°C° 0 mm 1 mps 669 mmHg 65%
    01:00 +5°C° 0 mm 1 mps 669 mmHg 66%
    02:00 +5°C° 0 mm 1 mps 669 mmHg 67%
    03:00 +5°C° 0 mm 1 mps 669 mmHg 68%
    04:00 +5°C° 0 mm 1 mps 669 mmHg 69%
    05:00 +5°C° 0 mm 1 mps 669 mmHg 70%
    06:00 +5°C° 0 mm 1 mps 669 mmHg 71%
    07:00 +5°C° 0 mm 1 mps 669 mmHg 70%
    08:00 +6°C° 0 mm 1 mps 670 mmHg 69%
    09:00 +5°C° 0 mm 2 mps 670 mmHg 69%
    10:00 +6°C° 0 mm 2 mps 670 mmHg 69%
    11:00 +7°C° 0 mm 2 mps 670 mmHg 70%
    12:00 +7°C° 0 mm 2 mps 670 mmHg 71%
    13:00 +7°C° 0.1 mm 2 mps 670 mmHg 71%
    14:00 +8°C° 0.1 mm 2 mps 669 mmHg 71%
    15:00 +8°C° 0 mm 2 mps 669 mmHg 69%
    16:00 +8°C° 0.1 mm 2 mps 669 mmHg 71%
    17:00 +8°C° 0.1 mm 2 mps 669 mmHg 73%
    18:00 +7°C° 0.1 mm 2 mps 669 mmHg 75%
    19:00 +7°C° 0.2 mm 2 mps 669 mmHg 77%
    20:00 +7°C° 0.2 mm 2 mps 669 mmHg 80%
    21:00 +7°C° 0.2 mm 1 mps 669 mmHg 82%
    22:00 +7°C° 0.3 mm 1 mps 669 mmHg 83%
    23:00 +6°C° 0.3 mm 2 mps 669 mmHg 84%

    Tomorrow, 21 February, Wednesday

    Time Temperature Precipitation Wind Pressure Humidity
    00:00 +6°C° 0.3 mm 2 mps 669 mmHg 85%
    01:00 +6°C° 0.2 mm 2 mps 669 mmHg 86%
    02:00 +6°C° 0.2 mm 1 mps 669 mmHg 87%
    03:00 +6°C° 0.2 mm 1 mps 668 mmHg 88%
    04:00 +6°C° 0.3 mm 1 mps 668 mmHg 89%
    05:00 +6°C° 0.3 mm 1 mps 668 mmHg 89%
    06:00 +6°C° 0.3 mm 1 mps 668 mmHg 90%
    07:00 +6°C° 0.3 mm 1 mps 668 mmHg 89%
    08:00 +5°C° 0.3 mm 2 mps 668 mmHg 88%
    09:00 +5°C° 0.3 mm 2 mps 668 mmHg 87%
    10:00 +6°C° 0.5 mm 2 mps 668 mmHg 86%
    11:00 +6°C° 0.5 mm 2 mps 668 mmHg 84%
    12:00 +7°C° 0.5 mm 2 mps 668 mmHg 82%
    13:00 +7°C° 1 mm 2 mps 668 mmHg 82%
    14:00 +7°C° 1 mm 2 mps 668 mmHg 83%
    15:00 +6°C° 1 mm 2 mps 667 mmHg 83%
    16:00 +7°C° 0.7 mm 1 mps 667 mmHg 84%
    17:00 +7°C° 0.7 mm 1 mps 667 mmHg 84%
    18:00 +7°C° 0.7 mm 1 mps 667 mmHg 85%
    19:00 +7°C° 0.6 mm 1 mps 668 mmHg 87%
    20:00 +7°C° 0.6 mm 1 mps 668 mmHg 88%
    21:00 +6°C° 0.6 mm 1 mps 668 mmHg 89%
    22:00 +6°C° 0.7 mm 1 mps 668 mmHg 90%
    23:00 +6°C° 0.7 mm 1 mps 668 mmHg 91%

    Day after tomorrow, 22 February, Thursday

    Time Temperature Precipitation Wind Pressure Humidity
    00:00 +6°C° 0.7 mm 1 mps 668 mmHg 92%
    01:00 +6°C° 0.5 mm 1 mps 668 mmHg 92%
    02:00 +6°C° 0.5 mm 1 mps 668 mmHg 92%
    03:00 +6°C° 0.5 mm 1 mps 668 mmHg 93%
    04:00 +6°C° 0.2 mm 1 mps 668 mmHg 93%
    05:00 +6°C° 0.2 mm 1 mps 668 mmHg 93%
    06:00 +5°C° 0.2 mm 0 mps 668 mmHg 93%
    07:00 +5°C° 0.3 mm 0 mps 668 mmHg 92%
    08:00 +5°C° 0.3 mm 0 mps 668 mmHg 90%
    09:00 +5°C° 0.3 mm 0 mps 668 mmHg 89%
    10:00 +6°C° 0.1 mm 0 mps 668 mmHg 86%
    11:00 +7°C° 0.1 mm 0 mps 668 mmHg 83%
    12:00 +7°C° 0.1 mm 0 mps 668 mmHg 79%
    13:00 +8°C° 0 mm 0 mps 668 mmHg 77%
    14:00 +8°C° 0 mm 0 mps 667 mmHg 75%
    15:00 +8°C° 0 mm 0 mps 667 mmHg 73%
    16:00 +8°C° 0.1 mm 0 mps 667 mmHg 74%
    17:00 +8°C° 0.1 mm 0 mps 667 mmHg 74%
    18:00 +8°C° 0.1 mm 0 mps 667 mmHg 74%
    19:00 +7°C° 0 mm 0 mps 667 mmHg 76%
    20:00 +7°C° 0 mm 0 mps 667 mmHg 78%
    21:00 +6°C° 0 mm 0 mps 668 mmHg 81%
    22:00 +6°C° 0 mm 0 mps 668 mmHg 81%
    23:00 +5°C° 0 mm 0 mps 668 mmHg 82%

    23 February, Friday

    Time Temperature Precipitation Wind Pressure Humidity
    00:00 +5°C° 0 mm 0 mps 668 mmHg 82%
    01:00 +4°C° 0 mm 0 mps 668 mmHg 83%
    02:00 +4°C° 0 mm 0 mps 667 mmHg 83%
    03:00 +4°C° 0 mm 0 mps 667 mmHg 83%
    04:00 +4°C° 0 mm 0 mps 667 mmHg 83%
    05:00 +3°C° 0 mm 0 mps 667 mmHg 84%
    06:00 +3°C° 0 mm 0 mps 667 mmHg 84%
    07:00 +4°C° 0 mm 0 mps 667 mmHg 81%
    08:00 +5°C° 0 mm 0 mps 668 mmHg 78%
    09:00 +6°C° 0 mm 0 mps 668 mmHg 75%
    10:00 +6°C° 0 mm 0 mps 668 mmHg 74%
    11:00 +7°C° 0 mm 0 mps 668 mmHg 73%
    12:00 +9°C° 0 mm 1 mps 667 mmHg 72%
    13:00 +9°C° 0 mm 1 mps 667 mmHg 70%
    14:00 +10°C° 0 mm 1 mps 667 mmHg 69%
    15:00 +10°C° 0 mm 1 mps 666 mmHg 67%
    16:00 +10°C° 0 mm 1 mps 666 mmHg 67%
    17:00 +8°C° 0 mm 0 mps 666 mmHg 67%
    18:00 +8°C° 0 mm 0 mps 666 mmHg 67%
    19:00 +8°C° 0 mm 0 mps 666 mmHg 70%
    20:00 +7°C° 0 mm 0 mps 666 mmHg 72%
    21:00 +6°C° 0 mm 0 mps 666 mmHg 75%
    22:00 +6°C° 0 mm 0 mps 666 mmHg 75%
    23:00 +6°C° 0 mm 0 mps 666 mmHg 76%

    24 February, Saturday

    Time Temperature Precipitation Wind Pressure Humidity
    00:00 +5°C° 0 mm 0 mps 666 mmHg 77%
    01:00 +5°C° 0 mm 0 mps 666 mmHg 78%
    02:00 +5°C° 0 mm 0 mps 666 mmHg 78%
    03:00 +4°C° 0 mm 0 mps 666 mmHg 79%
    04:00 +5°C° 0 mm 1 mps 666 mmHg 79%
    05:00 +5°C° 0 mm 1 mps 666 mmHg 80%
    06:00 +5°C° 0 mm 1 mps 666 mmHg 80%
    07:00 +5°C° 0 mm 1 mps 666 mmHg 77%
    08:00 +5°C° 0 mm 0 mps 667 mmHg 74%
    09:00 +6°C° 0 mm 0 mps 667 mmHg 72%
    10:00 +7°C° 0 mm 0 mps 667 mmHg 71%
    11:00 +7°C° 0 mm 0 mps 667 mmHg 70%
    12:00 +8°C° 0 mm 0 mps 667 mmHg 68%
    13:00 +9°C° 0 mm 0 mps 666 mmHg 67%
    14:00 +10°C° 0 mm 1 mps 666 mmHg 65%
    15:00 +10°C° 0 mm 1 mps 666 mmHg 63%
    16:00 +10°C° 0 mm 1 mps 666 mmHg 62%
    17:00 +10°C° 0 mm 1 mps 666 mmHg 60%
    18:00 +9°C° 0 mm 1 mps 665 mmHg 59%
    19:00 +9°C° 0 mm 1 mps 666 mmHg 62%
    20:00 +8°C° 0 mm 1 mps 666 mmHg 64%
    21:00 +7°C° 0 mm 1 mps 666 mmHg 67%
    22:00 +6°C° 0 mm 0 mps 666 mmHg 68%
    23:00 +5°C° 0 mm 0 mps 666 mmHg 70%

    25 February, Sunday

    Time Temperature Precipitation Wind Pressure Humidity
    00:00 +5°C° 0 mm 0 mps 666 mmHg 71%
    01:00 +5°C° 0 mm 0 mps 666 mmHg 72%
    02:00 +5°C° 0 mm 0 mps 666 mmHg 74%
    03:00 +4°C° 0 mm 0 mps 666 mmHg 75%
    04:00 +4°C° 0 mm 0 mps 666 mmHg 76%
    05:00 +5°C° 0 mm 1 mps 666 mmHg 78%
    06:00 +5°C° 0 mm 1 mps 666 mmHg 79%
    07:00 +6°C° 0 mm 1 mps 666 mmHg 77%
    08:00 +6°C° 0 mm 1 mps 666 mmHg 76%
    09:00 +7°C° 0 mm 1 mps 667 mmHg 75%
    10:00 +7°C° 0.1 mm 2 mps 666 mmHg 73%
    11:00 +8°C° 0.1 mm 2 mps 666 mmHg 72%
    12:00 +8°C° 0.1 mm 3 mps 666 mmHg 70%
    13:00 +8°C° 0.3 mm 3 mps 665 mmHg 69%
    14:00 +9°C° 0.3 mm 3 mps 665 mmHg 68%
    15:00 +9°C° 0.3 mm 3 mps 664 mmHg 68%
    16:00 +9°C° 0.4 mm 3 mps 664 mmHg 70%
    17:00 +8°C° 0.4 mm 3 mps 664 mmHg 73%
    18:00 +8°C° 0.4 mm 2 mps 664 mmHg 76%
    19:00 +8°C° 0.2 mm 2 mps 664 mmHg 79%
    20:00 +7°C° 0.2 mm 2 mps 664 mmHg 82%
    21:00 +8°C° 0.2 mm 1 mps 664 mmHg 85%
    22:00 +8°C° 0.2 mm 1 mps 664 mmHg 86%
    23:00 +7°C° 0.2 mm 1 mps 664 mmHg 88%
    Show more